Stündliche Wetter Abolene

Heute, 21 Juni, Montag

Zeit Temperatur Niederschläge Wind Luftdruck Luftfeuchtigkeit
00:00 +21°C° 0.2 mm 2 m/S 757 mmHg 87%
01:00 +21°C° 0.2 mm 2 m/S 758 mmHg 90%
02:00 +20°C° 0.2 mm 2 m/S 758 mmHg 94%
03:00 +20°C° 0.1 mm 2 m/S 758 mmHg 94%
04:00 +21°C° 0.1 mm 2 m/S 758 mmHg 94%
05:00 +21°C° 0.1 mm 2 m/S 757 mmHg 94%
06:00 +24°C° 0 mm 2 m/S 757 mmHg 87%
07:00 +25°C° 0 mm 3 m/S 757 mmHg 79%
08:00 +27°C° 0 mm 3 m/S 757 mmHg 71%
09:00 +29°C° 0 mm 3 m/S 757 mmHg 64%
10:00 +30°C° 0 mm 3 m/S 757 mmHg 57%
11:00 +31°C° 0 mm 3 m/S 757 mmHg 50%
12:00 +33°C° 0 mm 3 m/S 757 mmHg 47%
13:00 +34°C° 0 mm 3 m/S 757 mmHg 44%
14:00 +34°C° 0 mm 3 m/S 757 mmHg 41%
15:00 +34°C° 0 mm 3 m/S 756 mmHg 42%
16:00 +34°C° 0 mm 3 m/S 756 mmHg 44%
17:00 +34°C° 0 mm 2 m/S 756 mmHg 45%
18:00 +31°C° 0 mm 2 m/S 756 mmHg 53%
19:00 +29°C° 0 mm 2 m/S 756 mmHg 62%
20:00 +27°C° 0 mm 2 m/S 756 mmHg 70%
21:00 +26°C° 0 mm 2 m/S 756 mmHg 71%
22:00 +24°C° 0 mm 2 m/S 756 mmHg 72%
23:00 +23°C° 0 mm 2 m/S 756 mmHg 73%

Morgen, 22 Juni, Dienstag

Zeit Temperatur Niederschläge Wind Luftdruck Luftfeuchtigkeit
00:00 +21°C° 0 mm 2 m/S 756 mmHg 76%
01:00 +21°C° 0 mm 2 m/S 756 mmHg 78%
02:00 +20°C° 0 mm 2 m/S 756 mmHg 81%
03:00 +20°C° 0 mm 2 m/S 756 mmHg 82%
04:00 +21°C° 0 mm 2 m/S 756 mmHg 83%
05:00 +21°C° 0 mm 2 m/S 756 mmHg 84%
06:00 +24°C° 0 mm 3 m/S 756 mmHg 79%
07:00 +25°C° 0 mm 3 m/S 756 mmHg 73%
08:00 +27°C° 0 mm 4 m/S 756 mmHg 67%
09:00 +28°C° 0 mm 4 m/S 756 mmHg 63%
10:00 +30°C° 0 mm 5 m/S 756 mmHg 58%
11:00 +32°C° 0 mm 5 m/S 756 mmHg 54%
12:00 +32°C° 0.3 mm 5 m/S 756 mmHg 57%
13:00 +30°C° 0.3 mm 5 m/S 756 mmHg 60%
14:00 +30°C° 0.3 mm 4 m/S 756 mmHg 63%
15:00 +30°C° 0.1 mm 4 m/S 756 mmHg 64%
16:00 +29°C° 0.1 mm 4 m/S 755 mmHg 65%
17:00 +29°C° 0.1 mm 3 m/S 755 mmHg 66%
18:00 +28°C° 0 mm 3 m/S 755 mmHg 71%
19:00 +27°C° 0 mm 3 m/S 755 mmHg 75%
20:00 +26°C° 0 mm 2 m/S 756 mmHg 79%
21:00 +25°C° 0 mm 2 m/S 756 mmHg 82%
22:00 +24°C° 0 mm 2 m/S 756 mmHg 85%
23:00 +23°C° 0 mm 2 m/S 756 mmHg 87%

übermorgen, 23 Juni, Mittwoch

Zeit Temperatur Niederschläge Wind Luftdruck Luftfeuchtigkeit
00:00 +23°C° 0 mm 2 m/S 756 mmHg 89%
01:00 +23°C° 0 mm 2 m/S 757 mmHg 92%
02:00 +21°C° 0 mm 2 m/S 757 mmHg 94%
03:00 +23°C° 0 mm 2 m/S 757 mmHg 93%
04:00 +23°C° 0 mm 2 m/S 757 mmHg 91%
05:00 +23°C° 0 mm 2 m/S 757 mmHg 90%
06:00 +25°C° 0 mm 2 m/S 757 mmHg 83%
07:00 +27°C° 0 mm 2 m/S 757 mmHg 75%
08:00 +29°C° 0 mm 2 m/S 758 mmHg 68%
09:00 +30°C° 0.2 mm 3 m/S 758 mmHg 64%
10:00 +31°C° 0.2 mm 3 m/S 758 mmHg 60%
11:00 +33°C° 0.2 mm 3 m/S 758 mmHg 56%
12:00 +33°C° 0.1 mm 3 m/S 758 mmHg 51%
13:00 +34°C° 0.1 mm 3 m/S 758 mmHg 46%
14:00 +35°C° 0.1 mm 3 m/S 758 mmHg 42%
15:00 +34°C° 0 mm 2 m/S 758 mmHg 42%
16:00 +34°C° 0 mm 2 m/S 758 mmHg 43%
17:00 +34°C° 0 mm 2 m/S 757 mmHg 43%
18:00 +31°C° 0 mm 2 m/S 757 mmHg 52%
19:00 +29°C° 0 mm 2 m/S 758 mmHg 60%
20:00 +27°C° 0 mm 2 m/S 758 mmHg 68%
21:00 +26°C° 0 mm 1 m/S 758 mmHg 70%
22:00 +25°C° 0 mm 1 m/S 758 mmHg 73%
23:00 +24°C° 0 mm 1 m/S 758 mmHg 75%

24 Juni, Donnerstag

Zeit Temperatur Niederschläge Wind Luftdruck Luftfeuchtigkeit
00:00 +23°C° 0 mm 1 m/S 758 mmHg 79%
01:00 +22°C° 0 mm 1 m/S 758 mmHg 84%
02:00 +21°C° 0 mm 1 m/S 758 mmHg 89%
03:00 +22°C° 0.1 mm 1 m/S 758 mmHg 88%
04:00 +22°C° 0.1 mm 1 m/S 758 mmHg 87%
05:00 +23°C° 0.1 mm 1 m/S 758 mmHg 87%
06:00 +25°C° 0 mm 1 m/S 758 mmHg 80%
07:00 +26°C° 0 mm 2 m/S 758 mmHg 74%
08:00 +28°C° 0 mm 2 m/S 758 mmHg 68%
09:00 +30°C° 0.1 mm 2 m/S 758 mmHg 62%
10:00 +31°C° 0.1 mm 3 m/S 757 mmHg 57%
11:00 +34°C° 0.1 mm 3 m/S 757 mmHg 51%
12:00 +34°C° 0.1 mm 3 m/S 757 mmHg 53%
13:00 +33°C° 0.1 mm 3 m/S 757 mmHg 54%
14:00 +33°C° 0.1 mm 3 m/S 757 mmHg 56%
15:00 +33°C° 0.1 mm 3 m/S 757 mmHg 58%
16:00 +31°C° 0.1 mm 3 m/S 756 mmHg 59%
17:00 +31°C° 0.1 mm 3 m/S 756 mmHg 60%
18:00 +29°C° 0.4 mm 3 m/S 756 mmHg 69%
19:00 +27°C° 0.4 mm 2 m/S 756 mmHg 78%
20:00 +25°C° 0.4 mm 2 m/S 756 mmHg 87%
21:00 +24°C° 2.6 mm 2 m/S 756 mmHg 91%
22:00 +23°C° 2.6 mm 2 m/S 756 mmHg 94%
23:00 +22°C° 2.6 mm 1 m/S 757 mmHg 97%

25 Juni, Freitag

Zeit Temperatur Niederschläge Wind Luftdruck Luftfeuchtigkeit
00:00 +22°C° 0 mm 1 m/S 756 mmHg 97%
01:00 +21°C° 0 mm 1 m/S 756 mmHg 97%
02:00 +21°C° 0 mm 1 m/S 756 mmHg 96%
03:00 +21°C° 0 mm 1 m/S 756 mmHg 96%
04:00 +21°C° 0 mm 1 m/S 756 mmHg 95%
05:00 +22°C° 0 mm 1 m/S 756 mmHg 94%
06:00 +23°C° 0 mm 1 m/S 756 mmHg 88%
07:00 +24°C° 0 mm 1 m/S 756 mmHg 83%
08:00 +25°C° 0 mm 1 m/S 755 mmHg 77%
09:00 +27°C° 0 mm 1 m/S 755 mmHg 71%
10:00 +28°C° 0 mm 1 m/S 755 mmHg 65%
11:00 +30°C° 0 mm 1 m/S 755 mmHg 58%
12:00 +31°C° 0 mm 1 m/S 755 mmHg 55%
13:00 +32°C° 0 mm 1 m/S 754 mmHg 52%
14:00 +32°C° 0 mm 2 m/S 754 mmHg 48%
15:00 +32°C° 0 mm 1 m/S 753 mmHg 52%
16:00 +31°C° 0 mm 1 m/S 753 mmHg 55%
17:00 +31°C° 0 mm 1 m/S 752 mmHg 58%
18:00 +29°C° 1 mm 1 m/S 752 mmHg 68%
19:00 +26°C° 1 mm 1 m/S 752 mmHg 77%
20:00 +24°C° 1 mm 1 m/S 752 mmHg 87%
21:00 +23°C° 0.7 mm 1 m/S 752 mmHg 88%
22:00 +23°C° 0.7 mm 1 m/S 752 mmHg 90%
23:00 +22°C° 0.7 mm 1 m/S 751 mmHg 92%

26 Juni, Samstag

Zeit Temperatur Niederschläge Wind Luftdruck Luftfeuchtigkeit
00:00 +22°C° 1 mm 1 m/S 751 mmHg 93%
01:00 +22°C° 1 mm 1 m/S 751 mmHg 94%
02:00 +22°C° 1 mm 1 m/S 751 mmHg 95%
03:00 +22°C° 0 mm 1 m/S 750 mmHg 95%
04:00 +22°C° 0 mm 1 m/S 750 mmHg 95%
05:00 +22°C° 0 mm 1 m/S 749 mmHg 95%
06:00 +23°C° 0.2 mm 1 m/S 749 mmHg 91%
07:00 +24°C° 0.2 mm 1 m/S 749 mmHg 88%
08:00 +25°C° 0.2 mm 1 m/S 749 mmHg 85%
09:00 +26°C° 0.2 mm 2 m/S 749 mmHg 77%
10:00 +28°C° 0.2 mm 3 m/S 749 mmHg 70%
11:00 +29°C° 0.2 mm 3 m/S 749 mmHg 62%
12:00 +29°C° 0.1 mm 4 m/S 749 mmHg 60%
13:00 +29°C° 0.1 mm 4 m/S 748 mmHg 58%
14:00 +30°C° 0.1 mm 5 m/S 748 mmHg 56%
15:00 +29°C° 0.3 mm 4 m/S 748 mmHg 62%
16:00 +27°C° 0.3 mm 4 m/S 748 mmHg 68%
17:00 +26°C° 0.3 mm 4 m/S 748 mmHg 75%
18:00 +23°C° 0.1 mm 4 m/S 748 mmHg 80%
19:00 +22°C° 0.1 mm 4 m/S 748 mmHg 86%
20:00 +20°C° 0.1 mm 4 m/S 749 mmHg 92%
21:00 +19°C° 0.2 mm 4 m/S 749 mmHg 92%
22:00 +19°C° 0.2 mm 4 m/S 749 mmHg 92%
23:00 +18°C° 0.2 mm 4 m/S 750 mmHg 92%
Mehr zeigen

Wir brauchen deine Erlaubnis

Meteoprog und unser Service Anbieter werden persönliche Daten aufbewahren, so wie Cookies, Geräte Bezeichnung oder ähnliche Technologien von deinem Gerät und Prozess, so wie Persönliche Daten Inhalte und Werbungen, genauso wie social Media und den Verkehr zu analysieren.

  • Aufbewahrung und/oder Zugang zu deiner Geräte Informationen.

    Cookies, Geräte Bezeichnung oder andere Informationen, können aufbewahrt oder Zugang zu deinem Gerät erhalten, für den Grund, der oben angegeben wird.

  • Personalisierte Werbung und Inhalte, Messungen, Einblick in das Publikum und Produkt Entwicklung.

    Werbungen und Inhalte können personalisiert werden, basierend auf ein Profil. Mehr Daten können besser personalisierte Werbungen und Inhalte hinzufügen. Werbung und Inhalte können gezeigt und gemessen werden. Einblicke über das Publikum, welche die Werbung gesehen haben und den Inhalt, können abgeleitet werden. So wie Daten können genutzt werden, um es zu verbessern oder die Benutzer Erfahrung zu verbessern das System und die Software.

Wenn du “Ich stimme zu” klickst, erlaubst du uns, die Cookies zu benutzen die Geräte Bezeichnung, den Web oder ähnliche Technologien zu benutzen. Deine Settings, können in deinem Gerät bei deinem Browser geändert werden.

Für den bestimmten Zweck, berechtigten Interessen beruhen darauf, mehr als auf den Inhalt. Du kannst mehr darüber in unseren Privaten und Cookie Politik lesen.